User: anonymous   Login
Location: B?jaj?g
(11.7167°N, 92.6667°E)
Time: 15:05:24
(UTC+00:00)
Language:

Meteor 1-23 Rocket - Orbit

View from above orbital plane
View from above orbital plane
View from above satellite
View from above satellite

Ground track
Ground track

The orbit data is extracted from the following two-line orbital elements,

1 08520U 75124B   20339.87994843  .00000215  00000-0  11614-3 0  9997
2 08520  81.2911  23.3242 0036577 326.5117  33.3740 14.09000394309303
Epoch (UTC): 04 December 2020 21:07:07
Eccentricity: 0.0036577
inclination: 81.2911°
perigee height: 836 km
apogee height: 889 km
right ascension of ascending node: 23.3242°
argument of perigee: 326.5117°
revolutions per day: 14.09000394
mean anomaly at epoch: 33.3740°
orbit number at epoch: 30930

The dashed part of the orbit path shows where the satellite is in the earth's shadow,  

DLR